Location: Chisholm
(54.9102°N, 114.1701°W)
Time: 11:42:13
(UTC+00:00)

N. Korean satellite - Pass Details

Date: 03 December 2021
Orbit: 447 x 491 km, 97.3° (Epoch: 25 January)

Event Time Altitude Azimuth Distance (km) Brightness Sun altitude
Rises 00:17:25 0° 182° (S) 2,531 10.6 -8.6°
Reaches altitude 10° 00:19:34 10° 190° (S) 1,649 9.8 -8.9°
Maximum altitude 00:22:56 40° 262° (W) 712 8.1 -9.3°
Drops below altitude 10° 00:26:16 10° 333° (NNW) 1,636 9.3 -9.8°
Sets 00:28:24 0° 341° (NNW) 2,509 10.1 -10.1°
